Regional Weather Roundup
Issued by NWS Portland, ME

Home | Current Version | Previous Version | Text Only | Print | Product List | Glossary On
Versions: 1 2 3 4 5 6 7 8 9 10 11 12 13 14 15 16 17 18 19 20 21 22 23 24 25 26 27 28 29 30 31 32 33 34 35 36 37 38 39 40 41 42 43
000
ASUS41 KGYX 211305
RWRGYX
WEATHER ROUNDUP FOR MAINE AND NEW HAMPSHIRE
NATIONAL WEATHER SERVICE GRAY ME
900 AM EDT THU AUG 21 2014

MEZ002-005-006-010-012-015-018-020-021-024-026-027-029-211400-
MAINE

CITY           SKY/WX    TMP DP  RH WIND       PRES   REMARKS
PORTLAND       PTSUNNY   66  57  72 CALM      30.11R
SANFORD        CLOUDY    63  55  77 CALM      30.12R
BAR HARBOR     MOSUNNY   68  64  88 N3        30.10S
WISCASSET      PTSUNNY   64  60  87 CALM      30.12R
ROCKLAND       PTSUNNY   66  61  82 SE3       30.08S
FRYEBURG       PTSUNNY   59  58  96 CALM      30.12S
LEWISTONAUBURN PTSUNNY   61  55  82 CALM      30.12R
AUGUSTA        PTSUNNY   65  60  84 NW3       30.11S
WATERVILLE     PTSUNNY   64  61  88 NE6       30.07S
BANGOR         PTSUNNY   68  60  75 N3        30.11S
GREENVILLE       N/A     66  60  81 CALM      30.13R
MILLINOCKET    PTSUNNY   66  60  81 NE7       30.15R
HOULTON        MOSUNNY   65  58  78 VRB3      30.14S
PRESQUE ISLE   CLOUDY    61  57  88 N3        30.16S
FRENCHVILLE    SUNNY     64  57  78 VRB3      30.18S
CARIBOU        CLOUDY    62  58  86 VRB5      30.17R
$$

NHZ002-005-008-009-011-012-014-211400-
NEW HAMPSHIRE

CITY           SKY/WX    TMP DP  RH WIND       PRES   REMARKS
PORTSMOUTH     CLOUDY    60  56  89 NW2       30.10R
ROCHESTER      CLOUDY    61  55  81 CALM      30.11R
NASHUA         PTSUNNY   64  57  78 CALM      30.12R
MANCHESTER     CLOUDY    62  56  80 CALM      30.09S
CONCORD        CLOUDY    59  55  87 CALM      30.12R
LACONIA        CLOUDY    63  57  82 CALM      30.11R
PLYMOUTH       CLOUDY    60  60 100 CALM      30.11R
BERLIN         CLOUDY    57  56  96 CALM      30.13S
WHITEFIELD     CLOUDY    61  57  87 CALM      30.11S
JAFFREY        CLOUDY    62  56  80 CALM      30.12S
LEBANON        CLOUDY    64  58  80 CALM      30.09S
MT WASHINGTON  MOSUNNY   48  46  93 E6          N/A
$$

VTZ005-007-008-211400-
VERMONT

CITY           SKY/WX    TMP DP  RH WIND       PRES   REMARKS
ST JOHNSBURY     N/A     60  56  86 MISG      30.09S
MONTPELIER     LGT RAIN  62  60  93 CALM      30.13S
BURLINGTON     CLOUDY    66  62  87 SE7       30.05S
$$

MAZ007-012-024-CTZ003-RIZ002-NYZ038-NYZ072-211400-
SOUTHERN NEW ENGLAND AND NY

CITY           SKY/WX    TMP DP  RH WIND       PRES   REMARKS
BOSTON         PTSUNNY   65  61  87 CALM      30.11R
WORCESTER      PTSUNNY   65  54  67 VRB5      30.12R
NANTUCKET      CLOUDY    68  63  84 NE9       30.07R
PROVIDENCE     PTSUNNY   65  60  84 NE6       30.11S
HARTFORD       PTSUNNY   68  62  81 CALM      30.06F
ALBANY         CLOUDY    67  63  87 SE3       30.04S
NEW YORK CITY  MOSUNNY   74  64  71 CALM      30.06R
$$

ANZ081-ANZ082-ANZ150-NHZ014-MEZ023>029-211400-
COASTAL MARINE OBSERVATIONS

STATION/POSITION TIME  TEMP    WIND        PRES    WAVE
                       AIR SEA DIR/SP/G            HT/PER
                 (UTC) (F)     (DEG/KT/KT) (MB)    (FT/S)
MATINICUS ROCK   1200          320/  3/  3 1018.4R
PORTLAND WX BUOY 1250   62 64   20/  2/  4 1019.3R   1/ 7
WELLS            1200   60 61  330/  3/  4 1018.5R
ISLE OF SHOALS   1200   60     320/  4/  5 1018.8R
JEFFREYS LEDGE   1221      67                N/A     2/ 7
CASHES LEDGE BUO 1250   67 67              1018.9R   2/ 6
$$

.............KEY..............
   WCI - WIND CHILL
   TC  - TEMPERATURE IN CELSIUS
   VSB - VISIBILITY IN MILES
   HX  - HEAT INDEX
   FAIR- INDICATES FEW OR NO CLOUDS BELOW 12,000 FT, WITH NO
         SIGNIFICANT WEATHER AND/OR OBSTRUCTIONS TO VISIBILITY.




USA.gov is the U.S. government's official web portal to all federal, state and local government web resources and services.